Weather History for Vero Beach, FL

Change the Weather History Date:

Friday, January 18, 2013

  Actual Average Record
Temperature  
Mean Temperature 58 °F 62 °F  
Max Temperature 72 °F 72 °F 85 °F (1987)
Min Temperature 44 °F 51 °F 28 °F (1977)
Degree Days  
Heating Degree Days 7 5  
Month to date heating degree days 7 90  
Since 1 July heating degree days 120 225  
Cooling Degree Days 0 2  
Month to date cooling degree days 99 36  
Year to date cooling degree days 99 36  
Growing Degree Days 7 (Base 50)    
Moisture  
Dew Point 49 °F    
Average Humidity 71    
Maximum Humidity 84    
Minimum Humidity 57    
Precipitation  
Precipitation 0.10 in 0.07 in 0.94 in (2004)
Month to date precipitation 0.73 1.44  
Year to date precipitation 0.73 1.44  
Sea Level Pressure  
Sea Level Pressure 30.20 in    
Wind  
Wind Speed 12 mph (North)    
Max Wind Speed 25 mph    
Max Gust Speed 31 mph    
Visibility 10 miles    
Events Rain    
T = Trace of Precipitation, MM = Missing Value Source: NWS Daily Summary

Daily Weather History Graph

Daily Weather History Graph

Search for Another Location

Airport:

Trip Planner

Search our weather history database for the weather conditions in past years. The results will help you decide how hot, cold, wet, or windy it might be!

Date:

Astronomy

Jan. 18, 2013 Rise Set
Actual Time 7:13 AM EST 5:51 PM EST
Civil Twilight 6:48 AM EST 6:16 PM EST
Nautical Twilight 6:19 AM EST 6:45 PM EST
Astronomical Twilight 5:51 AM EST 7:13 PM EST
Moon 11:33 AM EST (1/18) No Moon Set
Length of Visible Light 11h 28m
Length of Day
10h 38m
Waxing Crescent, 47% of the Moon is Illuminated
Jan 18
Waxing Crescent
Jan 18
First Quarter
Jan 26
Full
Feb 3
Last Quarter
Feb 10
New

Hourly Weather History & Observations

Time (EST) Temp. Windchill Dew Point Humidity Pressure Visibility Wind Dir Wind Speed Gust Speed Precip Events Conditions
12:53 AM 54.0 °F - 46.0 °F 75% 30.11 in 10.0 mi WNW 9.2 mph - N/A   Clear
1:53 AM 50.0 °F - 45.0 °F 83% 30.12 in 10.0 mi NW 5.8 mph - N/A   Clear
2:53 AM 52.0 °F - 44.1 °F 74% 30.13 in 10.0 mi NW 11.5 mph 18.4 mph N/A   Clear
3:53 AM 50.0 °F - 43.0 °F 77% 30.14 in 10.0 mi NW 11.5 mph - N/A   Partly Cloudy
4:53 AM 48.0 °F - 41.0 °F 77% 30.16 in 10.0 mi NW 12.7 mph - N/A   Scattered Clouds
5:33 AM 46.4 °F 40.7 °F 39.2 °F 76% 30.18 in 10.0 mi NW 12.7 mph 19.6 mph N/A   Mostly Cloudy
5:53 AM 46.9 °F - 39.0 °F 74% 30.18 in 10.0 mi NW 13.8 mph - N/A   Overcast
6:53 AM 46.0 °F 40.6 °F 37.9 °F 73% 30.21 in 10.0 mi NW 11.5 mph - N/A   Overcast
7:25 AM 44.6 °F 39.2 °F 37.4 °F 76% 30.23 in 10.0 mi NW 10.4 mph - N/A   Scattered Clouds
7:53 AM 45.0 °F 40.1 °F 37.0 °F 74% 30.24 in 10.0 mi WNW 9.2 mph - N/A   Partly Cloudy
8:53 AM 48.0 °F - 39.0 °F 71% 30.25 in 10.0 mi WNW 10.4 mph - N/A   Clear
9:53 AM 54.0 °F - 42.1 °F 64% 30.25 in 10.0 mi NW 9.2 mph - N/A   Clear
10:53 AM 60.1 °F - 46.0 °F 60% 30.24 in 10.0 mi NW 10.4 mph - N/A   Partly Cloudy
11:53 AM 66.9 °F - 52.0 °F 59% 30.22 in 10.0 mi North 11.5 mph - N/A   Scattered Clouds
12:53 PM 68.0 °F - 54.0 °F 61% 30.20 in 10.0 mi Variable 5.8 mph - N/A   Mostly Cloudy
1:53 PM 70.0 °F - 53.1 °F 55% 30.18 in 10.0 mi ENE 16.1 mph 24.2 mph N/A   Overcast
2:53 PM 70.0 °F - 57.0 °F 63% 30.19 in 10.0 mi NNE 19.6 mph 28.8 mph N/A   Mostly Cloudy
3:53 PM 68.0 °F - 55.0 °F 63% 30.19 in 10.0 mi NE 16.1 mph 23.0 mph 0.00 in   Mostly Cloudy
4:53 PM 69.1 °F - 55.0 °F 61% 30.20 in 10.0 mi ENE 15.0 mph 23.0 mph N/A   Mostly Cloudy
5:53 PM 68.0 °F - 53.1 °F 59% 30.22 in 10.0 mi ENE 13.8 mph 20.7 mph N/A   Mostly Cloudy
6:53 PM 66.0 °F - 57.9 °F 75% 30.23 in 10.0 mi ENE 10.4 mph 19.6 mph 0.00 in   Mostly Cloudy
7:53 PM 66.9 °F - 55.9 °F 68% 30.24 in 10.0 mi ENE 13.8 mph 24.2 mph N/A   Partly Cloudy
8:53 PM 64.9 °F - 59.0 °F 81% 30.24 in 10.0 mi ENE 16.1 mph 20.7 mph 0.00 in   Overcast
9:53 PM 64.0 °F - 59.0 °F 84% 30.24 in 10.0 mi NE 15.0 mph 25.3 mph 0.03 in   Overcast
10:53 PM 64.0 °F - 61.0 °F 90% 30.23 in 8.0 mi East 9.2 mph - 0.03 in Rain Light Rain
11:53 PM 64.9 °F - 60.1 °F 84% 30.22 in 10.0 mi ENE 15.0 mph 20.7 mph 0.04 in   Overcast